Back to catalog

SSETI-EXPRESS

AliveScienceSSO
NORAD 28894·PAYLOAD·🇪🇺 EU

Launched Oct 27, 2005 from Plesetsk Cosmodrome

Loading…

Next Passes (next 24 hours)

TLE

FreshSource: Space-Track

Epoch: Sep 14, 2026, 08:33 UTC

1 28894U 05043E   26257.35625695  .00000329  00000-0  69995-4 0  9992
2 28894  98.3212  38.3355 0015863   4.4410 355.6930 14.65451045113338

Track SSETI-EXPRESS in real time with AllMySat

Download on the App Store